Year,Month,Day,Hour,Minute,Value (Times are PST for temperature in C)
2008,06,29,00,00,20.50
2008,06,29,00,01,20.50
2008,06,29,00,02,20.50
2008,06,29,00,03,20.50
2008,06,29,00,04,20.50
2008,06,29,00,05,20.50
2008,06,29,00,06,20.50
2008,06,29,00,07,20.50
2008,06,29,00,08,20.50
2008,06,29,00,09,20.50
2008,06,29,00,10,20.50
2008,06,29,00,11,20.50
2008,06,29,00,12,20.50
2008,06,29,00,13,20.50
2008,06,29,00,14,20.50
2008,06,29,00,15,20.50
2008,06,29,00,16,20.40
2008,06,29,00,17,20.40
2008,06,29,00,18,20.40
2008,06,29,00,19,20.40
2008,06,29,00,20,20.40
2008,06,29,00,21,20.30
2008,06,29,00,22,20.30
2008,06,29,00,23,20.30
2008,06,29,00,24,20.30
2008,06,29,00,25,20.30
2008,06,29,00,26,20.30
2008,06,29,00,27,20.20
2008,06,29,00,28,20.20
2008,06,29,00,29,20.20
2008,06,29,00,30,20.20
2008,06,29,00,31,20.20
2008,06,29,00,32,20.20
2008,06,29,00,33,20.20
2008,06,29,00,34,20.20
2008,06,29,00,35,20.20
2008,06,29,00,36,20.20
2008,06,29,00,37,20.20
2008,06,29,00,38,20.20
2008,06,29,00,39,20.20
2008,06,29,00,40,20.20
2008,06,29,00,41,20.20
2008,06,29,00,42,20.20
2008,06,29,00,43,20.20
2008,06,29,00,44,20.20
2008,06,29,00,45,20.20
2008,06,29,00,46,20.10
2008,06,29,00,47,20.10
2008,06,29,00,48,20.10
2008,06,29,00,49,20.10
2008,06,29,00,50,20.10
2008,06,29,00,51,20.00
2008,06,29,00,52,19.90
2008,06,29,00,53,19.90
2008,06,29,00,54,19.90
2008,06,29,00,55,19.90
2008,06,29,00,56,19.90
2008,06,29,00,57,19.90
2008,06,29,00,58,19.80
2008,06,29,00,59,19.80
2008,06,29,01,00,19.80
2008,06,29,01,01,19.80
2008,06,29,01,02,19.70
2008,06,29,01,03,19.70
2008,06,29,01,04,19.70
2008,06,29,01,05,19.60
2008,06,29,01,06,19.60
2008,06,29,01,07,19.60
2008,06,29,01,08,19.60
2008,06,29,01,09,19.60
2008,06,29,01,10,19.50
2008,06,29,01,11,19.50
2008,06,29,01,12,19.50
2008,06,29,01,13,19.50
2008,06,29,01,14,19.50
2008,06,29,01,15,19.40
2008,06,29,01,16,19.40
2008,06,29,01,17,19.40
2008,06,29,01,18,19.40
2008,06,29,01,19,19.40
2008,06,29,01,20,19.30
2008,06,29,01,21,19.30
2008,06,29,01,22,19.30
2008,06,29,01,23,19.30
2008,06,29,01,24,19.20
2008,06,29,01,25,19.20
2008,06,29,01,26,19.20
2008,06,29,01,27,19.20
2008,06,29,01,28,19.20
2008,06,29,01,29,19.20
2008,06,29,01,30,19.20
2008,06,29,01,31,19.20
2008,06,29,01,32,19.20
2008,06,29,01,33,19.20
2008,06,29,01,34,19.20
2008,06,29,01,35,19.10
2008,06,29,01,36,19.10
2008,06,29,01,37,19.10
2008,06,29,01,38,19.10
2008,06,29,01,39,19.10
2008,06,29,01,40,19.10
2008,06,29,01,41,19.10
2008,06,29,01,42,19.10
2008,06,29,01,43,19.10
2008,06,29,01,44,19.10
2008,06,29,01,45,19.10
2008,06,29,01,46,19.10
2008,06,29,01,47,19.10
2008,06,29,01,48,19.10
2008,06,29,01,49,19.10
2008,06,29,01,50,19.10
2008,06,29,01,51,19.10
2008,06,29,01,52,19.10
2008,06,29,01,53,19.10
2008,06,29,01,54,19.00
2008,06,29,01,55,18.90
2008,06,29,01,56,18.90
2008,06,29,01,57,18.90
2008,06,29,01,58,18.90
2008,06,29,01,59,18.90
2008,06,29,02,00,18.90
2008,06,29,02,01,18.90
2008,06,29,02,02,18.90
2008,06,29,02,03,18.90
2008,06,29,02,04,18.90
2008,06,29,02,05,18.90
2008,06,29,02,06,18.90
2008,06,29,02,07,18.90
2008,06,29,02,08,18.90
2008,06,29,02,09,18.90
2008,06,29,02,10,18.90
2008,06,29,02,11,18.80
2008,06,29,02,12,18.80
2008,06,29,02,13,18.80
2008,06,29,02,14,18.70
2008,06,29,02,15,18.70
2008,06,29,02,16,18.70
2008,06,29,02,17,18.70
2008,06,29,02,18,18.60
2008,06,29,02,19,18.60
2008,06,29,02,20,18.60
2008,06,29,02,21,18.60
2008,06,29,02,22,18.50
2008,06,29,02,23,18.60
2008,06,29,02,24,18.60
2008,06,29,02,25,18.70
2008,06,29,02,26,18.70
2008,06,29,02,27,18.70
2008,06,29,02,28,18.70
2008,06,29,02,29,18.60
2008,06,29,02,30,18.60
2008,06,29,02,31,18.60
2008,06,29,02,32,18.60
2008,06,29,02,33,18.60
2008,06,29,02,34,18.60
2008,06,29,02,35,18.50
2008,06,29,02,36,18.50
2008,06,29,02,37,18.60
2008,06,29,02,38,18.60
2008,06,29,02,39,18.60
2008,06,29,02,40,18.60
2008,06,29,02,41,18.60
2008,06,29,02,42,18.60
2008,06,29,02,43,18.60
2008,06,29,02,44,18.60
2008,06,29,02,45,18.60
2008,06,29,02,46,18.60
2008,06,29,02,47,18.60
2008,06,29,02,48,18.50
2008,06,29,02,49,18.50
2008,06,29,02,50,18.50
2008,06,29,02,51,18.50
2008,06,29,02,52,18.40
2008,06,29,02,53,18.40
2008,06,29,02,54,18.30
2008,06,29,02,55,18.30
2008,06,29,02,56,18.30
2008,06,29,02,57,18.20
2008,06,29,02,58,18.20
2008,06,29,02,59,18.20
2008,06,29,03,00,18.20
2008,06,29,03,01,18.10
2008,06,29,03,02,18.10
2008,06,29,03,03,18.10
2008,06,29,03,04,17.90
2008,06,29,03,05,17.90
2008,06,29,03,06,17.90
2008,06,29,03,07,17.90
2008,06,29,03,08,17.90
2008,06,29,03,09,17.90
2008,06,29,03,10,17.80
2008,06,29,03,11,17.80
2008,06,29,03,12,17.80
2008,06,29,03,13,17.70
2008,06,29,03,14,17.70
2008,06,29,03,15,17.70
2008,06,29,03,16,17.70
2008,06,29,03,17,17.60
2008,06,29,03,18,17.60
2008,06,29,03,19,17.60
2008,06,29,03,20,17.60
2008,06,29,03,21,17.60
2008,06,29,03,22,17.50
2008,06,29,03,23,17.50
2008,06,29,03,24,17.50
2008,06,29,03,25,17.50
2008,06,29,03,26,17.50
2008,06,29,03,27,17.40
2008,06,29,03,28,17.40
2008,06,29,03,29,17.40
2008,06,29,03,30,17.40
2008,06,29,03,31,17.30
2008,06,29,03,32,17.30
2008,06,29,03,33,17.30
2008,06,29,03,34,17.30
2008,06,29,03,35,17.30
2008,06,29,03,36,17.30
2008,06,29,03,37,17.30
2008,06,29,03,38,17.30
2008,06,29,03,39,17.30
2008,06,29,03,40,17.30
2008,06,29,03,41,17.20
2008,06,29,03,42,17.20
2008,06,29,03,43,17.20
2008,06,29,03,44,17.20
2008,06,29,03,45,17.20
2008,06,29,03,46,17.10
2008,06,29,03,47,17.10
2008,06,29,03,48,17.10
2008,06,29,03,49,17.10
2008,06,29,03,50,17.10
2008,06,29,03,51,17.00
2008,06,29,03,52,17.00
2008,06,29,03,53,17.00
2008,06,29,03,54,17.00
2008,06,29,03,55,16.90
2008,06,29,03,56,16.90
2008,06,29,03,57,16.90
2008,06,29,03,58,16.90
2008,06,29,03,59,16.90
2008,06,29,04,00,16.90
2008,06,29,04,01,16.80
2008,06,29,04,02,16.80
2008,06,29,04,03,16.80
2008,06,29,04,04,16.80
2008,06,29,04,05,16.80
2008,06,29,04,06,16.80
2008,06,29,04,07,16.80
2008,06,29,04,08,16.70
2008,06,29,04,09,16.70
2008,06,29,04,10,16.70
2008,06,29,04,11,16.70
2008,06,29,04,12,16.70
2008,06,29,04,13,16.70
2008,06,29,04,14,16.70
2008,06,29,04,15,16.70
2008,06,29,04,16,16.70
2008,06,29,04,17,16.70
2008,06,29,04,18,16.70
2008,06,29,04,19,16.70
2008,06,29,04,20,16.70
2008,06,29,04,21,16.70
2008,06,29,04,22,16.70
2008,06,29,04,23,16.70
2008,06,29,04,24,16.70
2008,06,29,04,25,16.70
2008,06,29,04,26,16.70
2008,06,29,04,27,16.70
2008,06,29,04,28,16.70
2008,06,29,04,29,16.70
2008,06,29,04,30,16.70
2008,06,29,04,31,16.70
2008,06,29,04,32,16.70
2008,06,29,04,33,16.70
2008,06,29,04,34,16.60
2008,06,29,04,35,16.60
2008,06,29,04,36,16.60
2008,06,29,04,37,16.60
2008,06,29,04,38,16.60
2008,06,29,04,39,16.60
2008,06,29,04,40,16.60
2008,06,29,04,41,16.60
2008,06,29,04,42,16.40
2008,06,29,04,43,16.40
2008,06,29,04,44,16.40
2008,06,29,04,45,16.40
2008,06,29,04,46,16.40
2008,06,29,04,47,16.40
2008,06,29,04,48,16.40
2008,06,29,04,49,16.40
2008,06,29,04,50,16.40
2008,06,29,04,51,16.40
2008,06,29,04,52,16.40
2008,06,29,04,53,16.40
2008,06,29,04,54,16.40
2008,06,29,04,55,16.40
2008,06,29,04,56,16.40
2008,06,29,04,57,16.40
2008,06,29,04,58,16.40
2008,06,29,04,59,16.40
2008,06,29,05,00,16.40
2008,06,29,05,01,16.40
2008,06,29,05,02,16.40
2008,06,29,05,03,16.40
2008,06,29,05,04,16.40
2008,06,29,05,05,16.40
2008,06,29,05,06,16.50
2008,06,29,05,07,16.60
2008,06,29,05,08,16.70
2008,06,29,05,09,16.70
2008,06,29,05,10,16.80
2008,06,29,05,11,16.80
2008,06,29,05,12,16.90
2008,06,29,05,13,16.90
2008,06,29,05,14,16.90
2008,06,29,05,15,16.90
2008,06,29,05,16,17.00
2008,06,29,05,17,17.00
2008,06,29,05,18,17.00
2008,06,29,05,19,17.00
2008,06,29,05,20,17.00
2008,06,29,05,21,17.00
2008,06,29,05,22,17.10
2008,06,29,05,23,17.10
2008,06,29,05,24,17.10
2008,06,29,05,25,17.10
2008,06,29,05,26,17.10
2008,06,29,05,27,17.20
2008,06,29,05,28,17.20
2008,06,29,05,29,17.20
2008,06,29,05,30,17.20
2008,06,29,05,31,17.30
2008,06,29,05,32,17.30
2008,06,29,05,33,17.30
2008,06,29,05,34,17.30
2008,06,29,05,35,17.30
2008,06,29,05,36,17.30
2008,06,29,05,37,17.30
2008,06,29,05,38,17.30
2008,06,29,05,39,17.40
2008,06,29,05,40,17.40
2008,06,29,05,41,17.40
2008,06,29,05,42,17.40
2008,06,29,05,43,17.40
2008,06,29,05,44,17.40
2008,06,29,05,45,17.50
2008,06,29,05,46,17.50
2008,06,29,05,47,17.50
2008,06,29,05,48,17.50
2008,06,29,05,49,17.50
2008,06,29,05,50,17.50
2008,06,29,05,51,17.50
2008,06,29,05,52,17.50
2008,06,29,05,53,17.50
2008,06,29,05,54,17.60
2008,06,29,05,55,17.60
2008,06,29,05,56,17.60
2008,06,29,05,57,17.60
2008,06,29,05,58,17.60
2008,06,29,05,59,17.60
2008,06,29,06,00,17.60
2008,06,29,06,01,17.60
2008,06,29,06,02,17.60
2008,06,29,06,03,17.60
2008,06,29,06,04,17.70
2008,06,29,06,05,17.70
2008,06,29,06,06,17.70
2008,06,29,06,07,17.70
2008,06,29,06,08,17.70
2008,06,29,06,09,17.70
2008,06,29,06,10,17.70
2008,06,29,06,11,17.70
2008,06,29,06,12,17.60
2008,06,29,06,13,17.60
2008,06,29,06,14,17.60
2008,06,29,06,15,17.60
2008,06,29,06,16,17.50
2008,06,29,06,17,17.50
2008,06,29,06,18,17.50
2008,06,29,06,19,17.50
2008,06,29,06,20,17.50
2008,06,29,06,21,17.50
2008,06,29,06,22,17.40
2008,06,29,06,23,17.40
2008,06,29,06,24,17.50
2008,06,29,06,25,17.50
2008,06,29,06,26,17.50
2008,06,29,06,27,17.50
2008,06,29,06,28,17.50
2008,06,29,06,29,17.50
2008,06,29,06,30,17.50
2008,06,29,06,31,17.60
2008,06,29,06,32,17.60
2008,06,29,06,33,17.60
2008,06,29,06,34,17.70
2008,06,29,06,35,17.70
2008,06,29,06,36,17.80
2008,06,29,06,37,17.80
2008,06,29,06,38,17.90
2008,06,29,06,39,17.90
2008,06,29,06,40,17.90
2008,06,29,06,41,18.00
2008,06,29,06,42,18.10
2008,06,29,06,43,18.20
2008,06,29,06,44,18.20
2008,06,29,06,45,18.20
2008,06,29,06,46,18.30
2008,06,29,06,47,18.30
2008,06,29,06,48,18.40
2008,06,29,06,49,18.40
2008,06,29,06,50,18.50
2008,06,29,06,51,18.60
2008,06,29,06,52,18.60
2008,06,29,06,53,18.60
2008,06,29,06,54,18.60
2008,06,29,06,55,18.60
2008,06,29,06,56,18.60
2008,06,29,06,57,19.20
2008,06,29,06,58,19.30
2008,06,29,06,59,19.40
2008,06,29,07,00,19.50
2008,06,29,07,01,19.60
2008,06,29,07,02,19.60
2008,06,29,07,03,19.70
2008,06,29,07,04,19.80
2008,06,29,07,05,19.90
2008,06,29,07,06,19.90
2008,06,29,07,07,19.90
2008,06,29,07,08,20.00
2008,06,29,07,09,20.10
2008,06,29,07,10,20.20
2008,06,29,07,11,20.30
2008,06,29,07,12,20.40
2008,06,29,07,13,20.50
2008,06,29,07,14,20.50
2008,06,29,07,15,20.60
2008,06,29,07,16,20.60
2008,06,29,07,17,20.70
2008,06,29,07,18,20.80
2008,06,29,07,19,20.80
2008,06,29,07,20,20.80
2008,06,29,07,21,20.90
2008,06,29,07,22,20.90
2008,06,29,07,23,20.90
2008,06,29,07,24,21.00
2008,06,29,07,25,21.00
2008,06,29,07,26,21.00
2008,06,29,07,27,21.00
2008,06,29,07,28,21.10
2008,06,29,07,29,21.10
2008,06,29,07,30,21.10
2008,06,29,07,31,21.10
2008,06,29,07,32,21.10
2008,06,29,07,33,21.10
2008,06,29,07,34,21.00
2008,06,29,07,35,21.00
2008,06,29,07,36,20.90
2008,06,29,07,37,20.70
2008,06,29,07,38,20.50
2008,06,29,07,39,20.20
2008,06,29,07,40,19.80
2008,06,29,07,41,19.50
2008,06,29,07,42,19.30
2008,06,29,07,43,19.10
2008,06,29,07,44,19.10
2008,06,29,07,45,18.90
2008,06,29,07,46,18.90
2008,06,29,07,47,18.90
2008,06,29,07,48,18.90
2008,06,29,07,49,18.90
2008,06,29,07,50,18.90
2008,06,29,07,51,18.90
2008,06,29,07,52,18.90
2008,06,29,07,53,18.90
2008,06,29,07,54,19.00
2008,06,29,07,55,19.10
2008,06,29,07,56,19.10
2008,06,29,07,57,19.10
2008,06,29,07,58,19.10
2008,06,29,07,59,19.10
2008,06,29,08,00,19.10
2008,06,29,08,01,19.20
2008,06,29,08,02,19.30
2008,06,29,08,03,19.30
2008,06,29,08,04,19.40
2008,06,29,08,05,19.40
2008,06,29,08,06,19.50
2008,06,29,08,07,19.60
2008,06,29,08,08,19.60
2008,06,29,08,09,19.70
2008,06,29,08,10,19.70
2008,06,29,08,11,19.80
2008,06,29,08,12,19.80
2008,06,29,08,13,19.90
2008,06,29,08,14,19.90
2008,06,29,08,15,19.90
2008,06,29,08,16,20.10
2008,06,29,08,17,20.20
2008,06,29,08,18,20.20
2008,06,29,08,19,20.30
2008,06,29,08,20,20.30
2008,06,29,08,21,20.40
2008,06,29,08,22,20.50
2008,06,29,08,23,20.60
2008,06,29,08,24,20.60
2008,06,29,08,25,20.70
2008,06,29,08,26,20.70
2008,06,29,08,27,20.80
2008,06,29,08,28,20.80
2008,06,29,08,29,20.90
2008,06,29,08,30,20.90
2008,06,29,08,31,21.00
2008,06,29,08,32,21.00
2008,06,29,08,33,21.00
2008,06,29,08,34,21.00
2008,06,29,08,35,21.10
2008,06,29,08,36,21.10
2008,06,29,08,37,21.20
2008,06,29,08,38,21.30
2008,06,29,08,39,21.30
2008,06,29,08,40,21.40
2008,06,29,08,41,21.40
2008,06,29,08,42,21.60
2008,06,29,08,43,21.60
2008,06,29,08,44,21.60
2008,06,29,08,45,21.70
2008,06,29,08,46,21.80
2008,06,29,08,47,21.90
2008,06,29,08,48,21.90
2008,06,29,08,49,22.00
2008,06,29,08,50,22.00
2008,06,29,08,51,22.10
2008,06,29,08,52,22.10
2008,06,29,08,53,22.20
2008,06,29,08,54,22.30
2008,06,29,08,55,22.40
2008,06,29,08,56,22.60
2008,06,29,08,57,22.70
2008,06,29,08,58,22.90
2008,06,29,08,59,23.00
2008,06,29,09,00,23.20
2008,06,29,09,01,23.30
2008,06,29,09,02,23.50
2008,06,29,09,03,23.70
2008,06,29,09,04,23.80
2008,06,29,09,05,23.90
2008,06,29,09,06,24.10
2008,06,29,09,07,24.20
2008,06,29,09,08,24.30
2008,06,29,09,09,24.30
2008,06,29,09,10,24.40
2008,06,29,09,11,24.50
2008,06,29,09,12,24.50
2008,06,29,09,13,24.60
2008,06,29,09,14,24.60
2008,06,29,09,15,24.50
2008,06,29,09,16,24.50
2008,06,29,09,17,24.40
2008,06,29,09,18,24.40
2008,06,29,09,19,24.40
2008,06,29,09,20,24.40
2008,06,29,09,21,24.40
2008,06,29,09,22,24.50
2008,06,29,09,23,24.50
2008,06,29,09,24,24.50
2008,06,29,09,25,24.60
2008,06,29,09,26,24.60
2008,06,29,09,27,24.60
2008,06,29,09,28,24.70
2008,06,29,09,29,24.80
2008,06,29,09,30,24.80
2008,06,29,09,31,24.90
2008,06,29,09,32,25.00
2008,06,29,09,33,25.00
2008,06,29,09,34,25.00
2008,06,29,09,35,25.00
2008,06,29,09,36,25.00
2008,06,29,09,37,25.00
2008,06,29,09,38,25.00
2008,06,29,09,39,24.80
2008,06,29,09,40,24.80
2008,06,29,09,41,24.70
2008,06,29,09,42,24.70
2008,06,29,09,43,24.60
2008,06,29,09,44,24.60
2008,06,29,09,45,24.60
2008,06,29,09,46,24.60
2008,06,29,09,47,24.60
2008,06,29,09,48,24.70
2008,06,29,09,49,24.80
2008,06,29,09,50,24.80
2008,06,29,09,51,24.90
2008,06,29,09,52,24.90
2008,06,29,09,53,24.90
2008,06,29,09,54,24.90
2008,06,29,09,55,24.90
2008,06,29,09,56,24.90
2008,06,29,09,57,24.90
2008,06,29,09,58,24.90
2008,06,29,09,59,25.00
2008,06,29,10,00,24.90
2008,06,29,10,01,24.90
2008,06,29,10,02,25.00
2008,06,29,10,03,25.10
2008,06,29,10,04,25.10
2008,06,29,10,05,25.10
2008,06,29,10,06,25.10
2008,06,29,10,07,25.10
2008,06,29,10,08,25.00
2008,06,29,10,09,25.10
2008,06,29,10,10,25.10
2008,06,29,10,11,25.20
2008,06,29,10,12,25.20
2008,06,29,10,13,25.20
2008,06,29,10,14,25.30
2008,06,29,10,15,25.30
2008,06,29,10,16,25.20
2008,06,29,10,17,25.20
2008,06,29,10,18,25.20
2008,06,29,10,19,25.20
2008,06,29,10,20,25.30
2008,06,29,10,21,25.20
2008,06,29,10,22,25.20
2008,06,29,10,23,25.20
2008,06,29,10,24,25.20
2008,06,29,10,25,25.10
2008,06,29,10,26,25.10
2008,06,29,10,27,25.00
2008,06,29,10,28,25.00
2008,06,29,10,29,25.00
2008,06,29,10,30,25.10
2008,06,29,10,31,25.20
2008,06,29,10,32,25.20
2008,06,29,10,33,25.30
2008,06,29,10,34,25.30
2008,06,29,10,35,25.30
2008,06,29,10,36,25.40
2008,06,29,10,37,25.40
2008,06,29,10,38,25.40
2008,06,29,10,39,25.40
2008,06,29,10,40,25.50
2008,06,29,10,41,25.50
2008,06,29,10,42,25.60
2008,06,29,10,43,25.60
2008,06,29,10,44,25.70
2008,06,29,10,45,25.70
2008,06,29,10,46,25.70
2008,06,29,10,47,25.60
2008,06,29,10,48,25.60
2008,06,29,10,49,25.70
2008,06,29,10,50,25.70
2008,06,29,10,51,25.70
2008,06,29,10,52,25.60
2008,06,29,10,53,25.60
2008,06,29,10,54,25.60
2008,06,29,10,55,25.60
2008,06,29,10,56,25.60
2008,06,29,10,57,25.60
2008,06,29,10,58,25.60
2008,06,29,10,59,25.70
2008,06,29,11,00,25.70
2008,06,29,11,01,25.70
2008,06,29,11,02,25.70
2008,06,29,11,03,25.70
2008,06,29,11,04,25.70
2008,06,29,11,05,25.70
2008,06,29,11,06,25.70
2008,06,29,11,07,25.70
2008,06,29,11,08,25.80
2008,06,29,11,09,25.90
2008,06,29,11,10,25.90
2008,06,29,11,11,26.00
2008,06,29,11,12,26.00
2008,06,29,11,13,26.00
2008,06,29,11,14,26.00
2008,06,29,11,15,26.00
2008,06,29,11,16,26.00
2008,06,29,11,17,26.00
2008,06,29,11,18,26.00
2008,06,29,11,19,26.00
2008,06,29,11,20,26.00
2008,06,29,11,21,26.00
2008,06,29,11,22,26.00
2008,06,29,11,23,26.20
2008,06,29,11,24,26.30
2008,06,29,11,25,26.30
2008,06,29,11,26,26.30
2008,06,29,11,27,26.40
2008,06,29,11,28,26.50
2008,06,29,11,29,26.60
2008,06,29,11,30,26.60
2008,06,29,11,31,26.60
2008,06,29,11,32,26.60
2008,06,29,11,33,26.60
2008,06,29,11,34,26.60
2008,06,29,11,35,26.70
2008,06,29,11,36,26.70
2008,06,29,11,37,26.80
2008,06,29,11,38,26.80
2008,06,29,11,39,26.90
2008,06,29,11,40,26.90
2008,06,29,11,41,27.00
2008,06,29,11,42,27.10
2008,06,29,11,43,27.10
2008,06,29,11,44,27.10
2008,06,29,11,45,27.10
2008,06,29,11,46,27.10
2008,06,29,11,47,27.10
2008,06,29,11,48,27.10
2008,06,29,11,49,27.10
2008,06,29,11,50,27.00
2008,06,29,11,51,26.90
2008,06,29,11,52,26.90
2008,06,29,11,53,26.90
2008,06,29,11,54,26.90
2008,06,29,11,55,26.90
2008,06,29,11,56,27.00
2008,06,29,11,57,27.10
2008,06,29,11,58,27.10
2008,06,29,11,59,27.10
2008,06,29,12,00,27.10
2008,06,29,12,01,27.10
2008,06,29,12,02,27.10
2008,06,29,12,03,27.10
2008,06,29,12,04,27.10
2008,06,29,12,05,27.10
2008,06,29,12,06,27.10
2008,06,29,12,07,27.10
2008,06,29,12,08,27.10
2008,06,29,12,09,27.20
2008,06,29,12,10,27.20
2008,06,29,12,11,27.20
2008,06,29,12,12,27.30
2008,06,29,12,13,27.30
2008,06,29,12,14,27.30
2008,06,29,12,15,27.30
2008,06,29,12,16,27.30
2008,06,29,12,17,27.40
2008,06,29,12,18,27.40
2008,06,29,12,19,27.40
2008,06,29,12,20,27.40
2008,06,29,12,21,27.40
2008,06,29,12,22,27.40
2008,06,29,12,23,27.40
2008,06,29,12,24,27.40
2008,06,29,12,25,27.30
2008,06,29,12,26,27.40
2008,06,29,12,27,27.40
2008,06,29,12,28,27.40
2008,06,29,12,29,27.30
2008,06,29,12,30,27.30
2008,06,29,12,31,27.30
2008,06,29,12,32,27.50
2008,06,29,12,33,27.50
2008,06,29,12,34,27.40
2008,06,29,12,35,27.30
2008,06,29,12,36,27.30
2008,06,29,12,37,27.30
2008,06,29,12,38,27.30
2008,06,29,12,39,27.30
2008,06,29,12,40,27.40
2008,06,29,12,41,27.60
2008,06,29,12,42,27.70
2008,06,29,12,43,27.80
2008,06,29,12,44,27.80
2008,06,29,12,45,27.80
2008,06,29,12,46,27.90
2008,06,29,12,47,27.90
2008,06,29,12,48,27.90
2008,06,29,12,49,27.90
2008,06,29,12,50,27.70
2008,06,29,12,51,27.60
2008,06,29,12,52,27.60
2008,06,29,12,53,27.40
2008,06,29,12,54,27.50
2008,06,29,12,55,27.60
2008,06,29,12,56,27.60
2008,06,29,12,57,27.70
2008,06,29,12,58,27.70
2008,06,29,12,59,27.80
2008,06,29,13,00,28.00
2008,06,29,13,01,28.00
2008,06,29,13,02,28.00
2008,06,29,13,03,28.00
2008,06,29,13,04,28.00
2008,06,29,13,05,28.00
2008,06,29,13,06,28.10
2008,06,29,13,07,28.10
2008,06,29,13,08,28.10
2008,06,29,13,09,28.10
2008,06,29,13,10,28.10
2008,06,29,13,11,28.20
2008,06,29,13,12,28.20
2008,06,29,13,13,28.20
2008,06,29,13,14,28.30
2008,06,29,13,15,28.40
2008,06,29,13,16,28.50
2008,06,29,13,17,28.60
2008,06,29,13,18,28.60
2008,06,29,13,19,28.70
2008,06,29,13,20,28.70
2008,06,29,13,21,28.80
2008,06,29,13,22,28.80
2008,06,29,13,23,28.90
2008,06,29,13,24,28.90
2008,06,29,13,25,28.90
2008,06,29,13,26,29.10
2008,06,29,13,27,29.20
2008,06,29,13,28,29.20
2008,06,29,13,29,29.20
2008,06,29,13,30,29.20
2008,06,29,13,31,29.20
2008,06,29,13,32,29.10
2008,06,29,13,33,29.10
2008,06,29,13,34,29.10
2008,06,29,13,35,29.10
2008,06,29,13,36,29.10
2008,06,29,13,37,29.10
2008,06,29,13,38,29.00
2008,06,29,13,39,28.90
2008,06,29,13,40,28.90
2008,06,29,13,41,28.90
2008,06,29,13,42,28.90
2008,06,29,13,43,28.90
2008,06,29,13,44,29.00
2008,06,29,13,45,29.10
2008,06,29,13,46,29.20
2008,06,29,13,47,29.10
2008,06,29,13,48,29.10
2008,06,29,13,49,29.10
2008,06,29,13,50,29.10
2008,06,29,13,51,29.20
2008,06,29,13,52,29.20
2008,06,29,13,53,29.20
2008,06,29,13,54,29.20
2008,06,29,13,55,29.20
2008,06,29,13,56,29.30
2008,06,29,13,57,29.40
2008,06,29,13,58,29.40
2008,06,29,13,59,29.50
2008,06,29,14,00,29.50
2008,06,29,14,01,29.60
2008,06,29,14,02,29.60
2008,06,29,14,03,29.70
2008,06,29,14,04,29.70
2008,06,29,14,05,29.80
2008,06,29,14,06,29.80
2008,06,29,14,07,29.90
2008,06,29,14,08,29.80
2008,06,29,14,09,29.60
2008,06,29,14,10,29.50
2008,06,29,14,11,29.20
2008,06,29,14,12,28.90
2008,06,29,14,13,28.40
2008,06,29,14,14,28.10
2008,06,29,14,15,27.80
2008,06,29,14,16,27.60
2008,06,29,14,17,27.40
2008,06,29,14,18,27.10
2008,06,29,14,19,26.80
2008,06,29,14,20,26.60
2008,06,29,14,21,26.40
2008,06,29,14,22,26.10
2008,06,29,14,23,25.80
2008,06,29,14,24,25.70
2008,06,29,14,25,25.60
2008,06,29,14,26,25.50
2008,06,29,14,27,25.40
2008,06,29,14,28,25.30
2008,06,29,14,29,25.30
2008,06,29,14,30,25.40
2008,06,29,14,31,25.50
2008,06,29,14,32,25.60
2008,06,29,14,33,25.70
2008,06,29,14,34,25.70
2008,06,29,14,35,25.80
2008,06,29,14,36,25.90
2008,06,29,14,37,26.20
2008,06,29,14,38,26.40
2008,06,29,14,39,26.60
2008,06,29,14,40,26.70
2008,06,29,14,41,26.70
2008,06,29,14,42,26.60
2008,06,29,14,43,26.50
2008,06,29,14,44,26.30
2008,06,29,14,45,26.10
2008,06,29,14,46,25.90
2008,06,29,14,47,25.80
2008,06,29,14,48,25.80
2008,06,29,14,49,25.80
2008,06,29,14,50,25.70
2008,06,29,14,51,25.60
2008,06,29,14,52,25.70
2008,06,29,14,53,25.70
2008,06,29,14,54,25.80
2008,06,29,14,55,25.70
2008,06,29,14,56,25.70
2008,06,29,14,57,25.80
2008,06,29,14,58,25.90
2008,06,29,14,59,26.10
2008,06,29,15,00,26.30
2008,06,29,15,01,26.40
2008,06,29,15,02,26.50
2008,06,29,15,03,26.60
2008,06,29,15,04,26.70
2008,06,29,15,05,26.80
2008,06,29,15,06,26.90
2008,06,29,15,07,27.00
2008,06,29,15,08,27.10
2008,06,29,15,09,27.10
2008,06,29,15,10,27.10
2008,06,29,15,11,27.10
2008,06,29,15,12,27.20
2008,06,29,15,13,27.30
2008,06,29,15,14,27.30
2008,06,29,15,15,27.30
2008,06,29,15,16,27.20
2008,06,29,15,17,27.10
2008,06,29,15,18,27.10
2008,06,29,15,19,27.10
2008,06,29,15,20,27.20
2008,06,29,15,21,27.30
2008,06,29,15,22,27.30
2008,06,29,15,23,27.40
2008,06,29,15,24,27.40
2008,06,29,15,25,27.40
2008,06,29,15,26,27.40
2008,06,29,15,27,27.60
2008,06,29,15,28,27.70
2008,06,29,15,29,27.80
2008,06,29,15,30,28.00
2008,06,29,15,31,28.00
2008,06,29,15,32,28.00
2008,06,29,15,33,28.10
2008,06,29,15,34,28.20
2008,06,29,15,35,28.00
2008,06,29,15,36,27.70
2008,06,29,15,37,27.50
2008,06,29,15,38,27.30
2008,06,29,15,39,27.20
2008,06,29,15,40,27.10
2008,06,29,15,41,27.10
2008,06,29,15,42,27.00
2008,06,29,15,43,27.10
2008,06,29,15,44,27.00
2008,06,29,15,45,26.90
2008,06,29,15,46,26.90
2008,06,29,15,47,26.90
2008,06,29,15,48,26.90
2008,06,29,15,49,26.90
2008,06,29,15,50,26.80
2008,06,29,15,51,26.80
2008,06,29,15,52,26.60
2008,06,29,15,53,26.60
2008,06,29,15,54,26.50
2008,06,29,15,55,26.40
2008,06,29,15,56,26.20
2008,06,29,15,57,26.20
2008,06,29,15,58,26.30
2008,06,29,15,59,26.30
2008,06,29,16,00,26.40
2008,06,29,16,01,26.40
2008,06,29,16,02,26.40
2008,06,29,16,03,26.40
2008,06,29,16,04,26.50
2008,06,29,16,05,26.60
2008,06,29,16,06,26.60
2008,06,29,16,07,26.60
2008,06,29,16,08,26.60
2008,06,29,16,09,26.60
2008,06,29,16,10,26.70
2008,06,29,16,11,26.70
2008,06,29,16,12,26.70
2008,06,29,16,13,26.80
2008,06,29,16,14,26.80
2008,06,29,16,15,26.90
2008,06,29,16,16,26.80
2008,06,29,16,17,26.80
2008,06,29,16,18,26.70
2008,06,29,16,19,26.60
2008,06,29,16,20,26.60
2008,06,29,16,21,26.80
2008,06,29,16,22,26.90
2008,06,29,16,23,26.90
2008,06,29,16,24,26.90
2008,06,29,16,25,26.90
2008,06,29,16,26,26.90
2008,06,29,16,27,26.80
2008,06,29,16,28,26.80
2008,06,29,16,29,26.80
2008,06,29,16,30,26.80
2008,06,29,16,31,26.80
2008,06,29,16,32,26.80
2008,06,29,16,33,26.80
2008,06,29,16,34,26.60
2008,06,29,16,35,26.50
2008,06,29,16,36,26.20
2008,06,29,16,37,26.00
2008,06,29,16,38,25.80
2008,06,29,16,39,25.80
2008,06,29,16,40,25.90
2008,06,29,16,41,25.80
2008,06,29,16,42,25.80
2008,06,29,16,43,25.70
2008,06,29,16,44,25.70
2008,06,29,16,45,25.70
2008,06,29,16,46,25.80
2008,06,29,16,47,26.00
2008,06,29,16,48,26.20
2008,06,29,16,49,26.30
2008,06,29,16,50,26.30
2008,06,29,16,51,26.30
2008,06,29,16,52,26.30
2008,06,29,16,53,26.30
2008,06,29,16,54,26.40
2008,06,29,16,55,26.50
2008,06,29,16,56,26.60
2008,06,29,16,57,26.60
2008,06,29,16,58,26.60
2008,06,29,16,59,26.70
2008,06,29,17,00,26.70
2008,06,29,17,01,26.70
2008,06,29,17,02,26.80
2008,06,29,17,03,26.90
2008,06,29,17,04,26.90
2008,06,29,17,05,27.00
2008,06,29,17,06,27.10
2008,06,29,17,07,27.20
2008,06,29,17,08,27.30
2008,06,29,17,09,27.30
2008,06,29,17,10,27.30
2008,06,29,17,11,27.30
2008,06,29,17,12,27.30
2008,06,29,17,13,27.30
2008,06,29,17,14,27.30
2008,06,29,17,15,27.30
2008,06,29,17,16,27.30
2008,06,29,17,17,27.30
2008,06,29,17,18,27.30
2008,06,29,17,19,27.20